680  
ASUS43 KJKL 231110  
RWRJKL  
 
EAST KENTUCKY HOURLY WEATHER ROUNDUP  
NATIONAL WEATHER SERVICE JACKSON KY  
700 AM EDT SAT OCT 23 2021  
 
NOTE: "FAIR" INDICATES FEW OR NO CLOUDS BELOW 12,000 FEET WITH  
NO SIGNIFICANT WEATHER AND/OR S TO VISIBILITY
.  
 
* THESE REPORTS ARE NOT UNDER NWS QUALITY CONTROL AND MAY NOT  
REPORT WEATHER SUCH AS PRECIPITATION AND FOG.
 
 
KYZ079-080-083-085-087-088-110-112-115-119-120-231200   
..EASTERN KENTUCKY
 
 
 
CITY SKY/WX TMP DP RH WIND PRES REMARKS
 
JACKSON CLOUDY 49 45 86 CALM 30.07R  
LONDON PTCLDY 44 43 96 SE3 30.09R  
SOMERSET* FOG 45 45 100 CALM 30.08R VSB 3/4  
MONTICELLO* PTCLDY 40 40 100 CALM 30.12R  
WILLIAMSBURG* CLOUDY 45 45 100 CALM 30.09S VSB<1/4  
MIDDLESBORO* FOG 42 42 100 CALM 30.12R VSB 1/4  
HARLAN APT* CLOUDY 45 45 100 CALM 30.10R  
PIKE CO APT* MOCLDY 46 46 100 CALM 30.08R  
BIG SANDY APT* CLOUDY 48 48 100 CALM 30.07R  
MOREHEAD APT* CLOUDY 50 46 87 SW6 30.07R  
ASHLAND* MOCLDY 49 49 100 CALM 30.05R  

 
 
KYZ035-036-041-042-044-050-067-078-099-231200   
..CENTRAL KENTUCKY
 
 
 
CITY SKY/WX TMP DP RH WIND PRES REMARKS
 
MT STERLING* CLOUDY 48 46 93 W5 30.09R  
FLEMING/MASON* MOCLDY 47 46 98 W6 30.07R  
DANVILLE* CLEAR 45 43 93 CALM 30.09R FOG  
RICHMOND* CLOUDY 46 46 100 CALM 30.08R  
LEXINGTON PTCLDY 46 44 93 S5 30.06S  
FRANKFORT PTCLDY 46 44 93 SW3 30.06R  
LOUISVILLE MOCLDY 48 46 93 S3 30.07R  
LEBANON* PTSUNNY 48 48 100 CALM 30.08R  
GLASGOW* FOG 42 42 100 CALM 30.09R VSB 1/2  
BOWLING GREEN FOG 45 43 93 CALM 30.08R VSB 1/4  

 
 
KYZ091>093-OHZ055-061-077-WVZ005-015-034-035-042-231200   
..SOUTHERN OHIO/WEST VIRGINIA
 
 
 
CITY SKY/WX TMP DP RH WIND PRES REMARKS
 
COVINGTON PTCLDY 47 44 90 SW3 30.04S  
COLUMBUS CLOUDY 47 46 97 N10 30.02R  
DAYTON CLOUDY 49 44 83 NW6 30.04R  
WILMINGTON CLOUDY 49 47 93 W10 30.03R  
HUNTINGTON CLOUDY 50 46 86 SW6 30.04R  
CHARLESTON CLOUDY 51 47 86 SW6 30.04R  
PINEVILLE* CLOUDY 51 46 83 MISG 30.10S  
BECKLEY CLOUDY 47 43 86 SW7 30.05R  
BLUEFIELD CLOUDY 43 42 97 W10 30.06R FOG  
LOGAN CO APT* PTSUNNY 48 48 100 S5 30.06R  

 
 
VAZ002-007-008-TNZ017-027-036-066-071-231200   
..SOUTHWEST VIRGINIA/EAST TENNESSEE
 
 
 
CITY SKY/WX TMP DP RH WIND PRES REMARKS
 
WISE* CLEAR 41 39 93 SW3 30.09R  
JONESVILLE* N/A 43 43 100 CALM 30.11R  
ABINGDON* CLOUDY 49 41 75 NW3 30.09R  
BRISTOL CLOUDY 52 45 77 SW3 30.09R  
MORRISTOWN* SUNNY 46 46 100 CALM 30.09R  
SEVIERVILLE* SUNNY 46 45 93 CALM 30.09R  
KNOXVILLE CLEAR 48 46 93 W6 30.09R  
LAFOLLETTE* FOG 43 43 100 CALM 30.15R VSB 0  
OAK RIDGE CLEAR 46 44 93 CALM 30.12R  
CROSSVILLE CLEAR 40 40 100 CALM 30.10R FOG  
NASHVILLE CLEAR 48 43 82 CALM 30.09R  

 
   
..KEY TO REMARKS
 
 
VSB - VISIBILITY IN MILES  
WCI - WIND CHILL INDEX  
HX - HEAT INDEX  
 

 
 
 
CLICK HERE TO GO TO PREVIOUS BULLETINS.

The Nexlab KY Page Main Text Page